Find Starlink 32711

NORAD ID: 62435 Int'l Des: 2024-251 Owner: SPXS Country: US Constellation: starlink operational
LEOCIRCULAR

現在のビュー

3D地球を読み込み中...

About Starlink 32711

Starlink 32711 (NORAD 62435) is a starlink constellation satellite (v2 mini) launched Dec 29, 2024 by SPXS of US. It operates in LEO, CIRCULAR orbit with a mass of 730.00 kg.

Starlink 32711について

説明を読み込み中...

次回通過

Passes for default location (London). Set your location on the main map for personalized predictions.

高度履歴

Loading altitude history...

軌道要素

1 62435U 24251D 26174.80329074 .00018307 00000-0 62811-3 0 9997
2 62435 53.1587 202.5035 0001449 85.2255 274.8911 15.30230156 84193
Epoch: Jun 23, 2026 • Age: 33 hours

現在のステータス

高度 480.5 km
速度 7.63 km/s
衛星直下点 53.12°N, 49.68°W
打ち上げ日 Dec 29, 2024
運用期間 1.4 years
タイプ internet

技術仕様

分類 Payload
質量 730.00 kg
乾燥質量 700.00 kg
総質量 730.00 kg
長さ 0.30 m
直径 4.10 m
スパン 29.00 m
形状 Box + pan
製造者 SPXS
バスタイプ Starlink V2M
フェーズステータス In Orbit
所有者/国 SPXS/US

Most Searched